Bozeman, MT

11:09 PM MDT on June 22, 2017 (GMT -0600)
Gallatin

Weather History for KBZN - February, 2012

Change the Weather History Date:

Tuesday, February 28, 2012

  Actual Average Record
Temperature  
Mean Temperature 25 °F 31 °F  
Max Temperature 34 °F 43 °F 64 °F (1992)
Min Temperature 16 °F 18 °F -28 °F (1996)
Degree Days  
Heating Degree Days 40 34  
Month to date heating degree days 1100 1059  
Since 1 July heating degree days 5399 5580  
Cooling Degree Days 0 0  
Month to date cooling degree days 0 0  
Year to date cooling degree days 0 0  
Moisture  
Dew Point 16 °F    
Average Humidity 68    
Maximum Humidity 84    
Minimum Humidity 51    
Precipitation  
Precipitation T in 0.02 in 0.27 in (1953)
Month to date precipitation 0.28 0.43  
Year to date precipitation 0.38 0.91  
Snow  
Snow T in 0.20 in 4.40 in (1953)
Month to date snowfall 5.7 4.9  
Since 1 July snowfall 14.2 22.3  
Snow Depth 0.00 in    
Sea Level Pressure  
Sea Level Pressure 29.91 in    
Wind  
Wind Speed 3 mph (SE)    
Max Wind Speed 9 mph    
Max Gust Speed 12 mph    
Visibility 9 miles    
Events Snow    
T = Trace of Precipitation, MM = Missing Value Source: NWS Daily Summary

Daily Weather History Graph

Daily Weather History Graph

Search for Another Location

Airport or City:

Trip Planner

Search our weather history database for the weather conditions in past years. The results will help you decide how hot, cold, wet, or windy it might be!

Date:

Astronomy

Feb. 28, 2012 Rise Set
Actual Time 7:05 AM MST 6:09 PM MST
Civil Twilight 6:35 AM MST 6:39 PM MST
Nautical Twilight 6:01 AM MST 7:13 PM MST
Astronomical Twilight 5:26 AM MST 7:48 PM MST
Moon 9:52 AM MST (2/28) 12:27 AM MST (2/28)
Length of Visible Light 12h 03m
Length of Day
11h 03m
Waxing Crescent, 38% of the Moon is Illuminated
Feb 28
Waxing Crescent
Feb 29
First Quarter
Mar 8
Full
Mar 14
Last Quarter
Mar 22
New

Hourly Weather History & Observations

Time (MST) Temp. Windchill Dew Point Humidity Pressure Visibility Wind Dir Wind Speed Gust Speed Precip Events Conditions
12:56 AM 18.0 °F - 12.0 °F 78% 29.96 in 10.0 mi Calm Calm - N/A   Mostly Cloudy
1:56 AM 21.0 °F - 16.0 °F 81% 29.93 in 10.0 mi Calm Calm - N/A   Overcast
2:56 AM 19.0 °F - 14.0 °F 81% 29.92 in 10.0 mi Calm Calm - N/A   Overcast
3:56 AM 19.0 °F 12.3 °F 15.1 °F 85% 29.89 in 10.0 mi NW 4.6 mph - N/A   Overcast
4:56 AM 18.0 °F 12.7 °F 12.9 °F 81% 29.91 in 10.0 mi NW 3.5 mph - N/A   Overcast
5:56 AM 18.0 °F 11.1 °F 14.0 °F 84% 29.90 in 10.0 mi NW 4.6 mph - N/A   Overcast
6:56 AM 18.0 °F - 12.9 °F 81% 29.91 in 10.0 mi Calm Calm - N/A   Overcast
7:56 AM 19.9 °F - 14.0 °F 78% 29.92 in 10.0 mi Calm Calm - N/A   Overcast
8:56 AM 21.9 °F - 16.0 °F 78% 29.94 in 10.0 mi Calm Calm - N/A   Overcast
9:56 AM 23.0 °F - 16.0 °F 74% 29.94 in 10.0 mi Calm Calm - N/A   Overcast
10:35 AM 23.0 °F - 15.8 °F 74% 29.81 in 2.0 mi Calm Calm - 0.00 in Snow Light Snow
10:56 AM 23.0 °F - 17.1 °F 78% 29.96 in 2.5 mi Calm Calm - 0.00 in Snow Light Snow
11:12 AM 23.0 °F - 17.6 °F 80% 29.81 in 2.5 mi Calm Calm - 0.00 in Snow Light Snow
11:30 AM 23.0 °F - 17.6 °F 80% 29.81 in 3.0 mi Calm Calm - 0.00 in Snow Light Snow
11:56 AM 24.1 °F 19.7 °F 18.0 °F 77% 29.97 in 7.0 mi SE 3.5 mph - 0.00 in   Overcast
12:56 PM 25.0 °F - 19.0 °F 78% 29.95 in 10.0 mi Calm Calm - N/A   Overcast
1:56 PM 27.0 °F 21.6 °F 19.0 °F 72% 29.94 in 10.0 mi South 4.6 mph - N/A   Overcast
2:56 PM 30.9 °F 25.2 °F 19.0 °F 61% 29.91 in 10.0 mi ESE 5.8 mph - N/A   Clear
3:56 PM 32.0 °F 28.7 °F 17.1 °F 54% 29.91 in 10.0 mi East 3.5 mph - N/A   Clear
4:56 PM 34.0 °F 28.0 °F 17.1 °F 50% 29.89 in 10.0 mi East 6.9 mph - N/A   Clear
5:56 PM 30.9 °F 26.2 °F 17.1 °F 57% 29.91 in 10.0 mi ENE 4.6 mph - N/A   Clear
6:56 PM 27.0 °F 21.6 °F 16.0 °F 63% 29.93 in 10.0 mi SE 4.6 mph - N/A   Clear
7:56 PM 25.0 °F 17.1 °F 17.1 °F 72% 29.93 in 10.0 mi South 6.9 mph - N/A   Clear
8:56 PM 19.0 °F 9.0 °F 14.0 °F 81% 29.94 in 10.0 mi SSE 8.1 mph - N/A   Clear
9:56 PM 19.9 °F 12.1 °F 12.9 °F 74% 29.94 in 10.0 mi East 5.8 mph - N/A   Clear
10:56 PM 19.0 °F 10.0 °F 12.9 °F 77% 29.94 in 10.0 mi SSE 6.9 mph - N/A   Clear
11:56 PM 17.1 °F 7.6 °F 10.9 °F 77% 29.92 in 10.0 mi SE 6.9 mph - N/A   Clear